GW7823 Weather Reports


time (UTC)temp
F
wind
direction
speed
knots
gust
knots
rain 1hr
in
rain 24hr
in
rain mn
in
humidity
%
barometer
mb
20260906041803 57 166 0.9 1.7 0.02 0.01 0.01 98 1019.4
20260906041258 57 134 0.0 0.9 0.00 0.00 0.00 98 1019.5
20260906040754 57 256 0.0 0.0 0.02 0.00 0.00 98 1019.3
20260906040249 57 112 0.0 0.9 0.02 0.00 0.00 98 1019.4
20260906035744 58 186 0.9 2.6 0.00 0.30 0.30 98 1019.2
20260906035240 58 20 1.7 2.6 0.00 0.30 0.30 98 1019.3
20260906034740 58 36 0.0 2.6 0.00 0.30 0.30 98 1019.1
20260906034235 59 100 0.0 1.7 0.02 0.30 0.30 98 1019.2
20260906033730 59 37 0.0 1.7 0.00 0.30 0.30 98 1019.1
20260906033230 59 107 0.0 0.0 0.00 0.30 0.30 98 1019.0
20260906032727 59 50 0.0 0.9 0.00 0.30 0.30 98 1019.1
20260906032226 59 56 0.0 0.9 0.00 0.30 0.30 98 1019.1
20260906031722 59 322 0.0 0.9 0.00 0.30 0.30 98 1019.1
20260906031218 59 229 0.0 0.9 0.00 0.30 0.30 98 1019.1
20260906030717 59 38 0.9 1.7 0.00 0.30 0.30 98 1019.1
20260906030212 59 352 0.0 0.9 0.00 0.30 0.30 98 1019.3
20260906025712 59 77 0.0 1.7 0.00 0.30 0.30 98 1019.3
20260906025212 59 55 0.0 0.0 0.00 0.30 0.30 98 1019.2
20260906024711 59 55 0.0 0.0 0.00 0.30 0.30 98 1019.3
20260906024210 59 132 0.9 0.9 0.00 0.30 0.30 98 1019.3
20260906023707 59 89 0.0 0.9 0.02 0.30 0.30 98 1019.2
20260906023206 59 55 0.0 0.9 0.02 0.30 0.30 98 1019.2
20260906022701 59 76 0.9 1.7 0.00 0.29 0.29 98 1019.3
20260906022158 59 75 0.9 1.7 0.00 0.29 0.29 98 1019.2
20260906021654 59 69 0.0 0.9 0.00 0.29 0.29 98 1019.1
20260906021152 59 89 0.0 0.9 0.00 0.29 0.29 98 1019.1
20260906020647 59 186 0.0 0.9 0.02 0.29 0.29 98 1019.2
20260906020142 59 89 0.0 1.7 0.05 0.29 0.29 98 1019.1
20260906015642 59 50 0.0 0.9 0.02 0.29 0.29 98 1019.1
20260906015141 59 322 0.0 0.0 0.05 0.29 0.29 98 1018.9
20260906014641 59 217 0.0 0.0 0.07 0.28 0.28 98 1018.8
20260906014137 59 123 0.9 1.7 0.02 0.28 0.28 98 1018.9
20260906013632 59 286 0.9 1.7 0.00 0.27 0.27 98 1019.0
20260906013128 60 132 0.0 1.7 0.00 0.27 0.27 98 1018.9
20260906012627 60 113 1.7 1.7 0.02 0.27 0.27 98 1018.9
20260906012122 60 34 1.7 1.7 0.02 0.27 0.27 98 1019.1
20260906011619 60 18 0.9 1.7 0.02 0.27 0.27 98 1019.0
20260906011119 60 46 1.7 1.7 0.02 0.27 0.27 98 1019.0
20260906010614 60 56 0.9 0.9 0.00 0.26 0.26 98 1019.2
20260906010110 60 204 0.0 1.7 0.00 0.26 0.26 98 1019.1
20260906005609 60 220 1.7 1.7 0.00 0.26 0.26 98 1019.2
20260906005109 60 63 0.0 1.7 0.00 0.26 0.26 98 1018.9
20260906004608 60 32 0.9 1.7 0.00 0.26 0.26 98 1018.9
20260906004103 60 14 0.9 1.7 0.00 0.26 0.26 97 1018.9
20260906003558 60 89 0.0 0.9 0.02 0.26 0.26 97 1018.6
20260906003055 60 36 1.7 1.7 0.19 0.26 0.26 97 1018.7
20260906002555 60 89 1.7 1.7 0.52 0.26 0.26 97 1018.6
20260906002049 60 97 0.9 1.7 0.38 0.22 0.22 97 1018.7
20260906001544 60 135 0.9 1.7 0.21 0.17 0.17 97 1018.5
20260906001039 60 197 0.9 1.7 0.33 0.15 0.15 96 1018.5
20260906000535 60 134 0.0 1.7 0.28 0.13 0.13 96 1018.3
20260906000030 60 161 0.0 0.9 0.09 0.10 0.10 96 1018.3
20260905235529 60 105 0.0 1.7 0.05 0.09 0.09 96 1018.2
20260905235025 61 140 1.7 1.7 0.00 0.08 0.08 96 1018.2
20260905234521 61 89 0.0 1.7 0.00 0.08 0.08 96 1017.8
20260905234021 61 77 0.0 1.7 0.02 0.08 0.08 96 1018.0
20260905233515 61 68 0.0 1.7 0.00 0.07 0.07 96 1018.1
20260905233015 61 6 1.7 3.5 0.00 0.07 0.07 96 1017.9
20260905232511 62 82 1.7 2.6 0.00 0.07 0.07 96 1018.0
20260905232006 62 105 0.9 1.7 0.00 0.07 0.07 96 1018.0
20260905231501 62 61 0.9 2.6 0.00 0.07 0.07 97 1017.7
20260905230958 62 101 1.7 1.7 0.00 0.07 0.07 97 1017.6
20260905230456 62 107 0.9 1.7 0.00 0.07 0.07 96 1017.7
20260905225954 63 89 0.0 1.7 0.00 0.07 0.07 96 1017.6
20260905225450 63 142 0.0 0.9 0.00 0.07 0.07 96 1017.6
20260905224945 63 32 0.0 0.0 0.00 0.07 0.07 96 1017.6
20260905224440 63 43 0.9 1.7 0.00 0.07 0.07 95 1017.4
20260905223939 63 47 0.9 1.7 0.00 0.07 0.07 95 1017.3
20260905223437 63 66 0.0 0.9 0.00 0.07 0.07 95 1017.6
20260905222932 63 119 0.0 0.0 0.00 0.07 0.07 94 1017.3
20260905222432 63 48 0.0 0.9 0.00 0.07 0.07 94 1017.2
20260905221927 64 24 0.0 0.9 0.00 0.07 0.07 94 1017.4
20260905221424 64 115 0.9 1.7 0.00 0.07 0.07 94 1017.7
20260905220920 64 299 0.0 0.9 0.02 0.07 0.07 94 1017.3
20260905220416 64 129 0.0 0.9 0.02 0.07 0.07 94 1017.3
20260905215915 64 129 0.0 0.9 0.02 0.07 0.07 93 1017.1
20260905215410 64 148 0.0 0.9 0.05 0.07 0.07 93 1017.3
20260905214907 65 345 0.0 0.0 0.14 0.07 0.07 92 1017.3
20260905214402 65 55 0.0 0.9 0.19 0.06 0.06 91 1017.1
20260905213857 66 47 0.9 1.7 0.17 0.04 0.04 89 1017.2
20260905213353 66 347 0.0 1.7 0.02 0.02 0.02 86 1017.1
20260905212853 67 339 0.0 2.6 0.00 0.02 0.02 83 1017.2
20260905212348 68 0 0.0 0.9 0.00 0.02 0.02 81 1016.8
20260905211847 68 23 0.0 2.6 0.00 0.02 0.02 80 1016.7
20260905211344 69 33 1.7 1.7 0.00 0.02 0.02 82 1016.8
20260905210839 68 38 0.9 1.7 0.00 0.02 0.02 83 1016.7
20260905210340 68 33 0.9 0.9 0.00 0.02 0.02 84 1016.6
20260905205838 68 32 0.9 1.7 0.00 0.02 0.02 83 1016.6
20260905205333 68 106 1.7 1.7 0.00 0.02 0.02 83 1016.7
20260905204832 68 197 1.7 1.7 0.00 0.02 0.02 88 1016.5
20260905204329 68 40 0.0 1.7 0.00 0.02 0.02 85 1016.6
20260905203827 68 29 0.9 1.7 0.00 0.02 0.02 85 1016.7
20260905203323 68 28 0.0 1.7 0.00 0.02 0.02 84 1016.7
20260905202819 67 32 0.0 0.9 0.00 0.02 0.02 87 1016.6
20260905202313 67 50 0.9 0.9 0.02 0.02 0.02 86 1016.4
20260905201809 68 113 0.0 0.9 0.05 0.02 0.02 86 1016.5
20260905201304 68 117 0.9 1.7 0.07 0.01 0.01 83 1016.3
20260905200759 68 55 0.0 1.7 0.05 0.01 0.01 78 1016.4
20260905200255 68 173 0.0 1.7 0.00 0.00 0.00 81 1016.5
20260905195752 68 181 0.0 0.9 0.00 0.00 0.00 83 1016.3
20260905195248 68 185 1.7 1.7 0.00 0.00 0.00 84 1016.3
20260905194743 68 152 1.7 1.7 0.00 0.00 0.00 84 1016.3
20260905194243 67 119 0.9 1.7 0.00 0.00 0.00 85 1016.4
20260905193742 67 144 0.9 1.7 0.00 0.00 0.00 87 1016.5
20260905193238 67 113 0.0 1.7 0.00 0.00 0.00 84 1016.3
20260905192733 67 130 0.9 1.7 0.00 0.00 0.00 80 1016.3
20260905192229 68 150 0.0 1.7 0.00 0.00 0.00 80 1016.4
20260905191728 68 134 0.9 0.9 0.00 0.00 0.00 76 1016.3
20260905191226 69 13 0.0 1.7 0.00 0.00 0.00 76 1016.3
20260905190726 69 217 0.0 0.9 0.00 0.00 0.00 76 1016.3
20260905190224 69 128 0.9 1.7 0.00 0.00 0.00 77 1016.4
20260905185724 69 85 1.7 1.7 0.00 0.00 0.00 77 1016.3
20260905185219 69 36 1.7 1.7 0.00 0.00 0.00 75 1016.2
20260905184713 69 25 2.6 2.6 0.00 0.00 0.00 76 1016.2
20260905184212 69 58 1.7 2.6 0.00 0.00 0.00 75 1016.4
20260905183712 69 34 0.0 2.6 0.00 0.00 0.00 73 1016.1
20260905183207 70 17 0.9 1.7 0.00 0.00 0.00 73 1016.5
20260905182707 70 37 0.0 0.9 0.00 0.00 0.00 73 1016.3
20260905182206 70 43 0.0 1.7 0.00 0.00 0.00 75 1016.2
20260905181702 70 77 0.0 0.9 0.00 0.00 0.00 75 1016.2
20260905181201 70 50 0.0 1.7 0.00 0.00 0.00 71 1016.3
20260905180655 70 88 0.9 1.7 0.00 0.00 0.00 71 1016.4
20260905180151 70 69 0.0 0.9 0.00 0.00 0.00 71 1016.4
20260905175650 70 39 0.9 1.7 0.00 0.00 0.00 70 1016.2
20260905175145 70 38 0.9 1.7 0.00 0.00 0.00 66 1016.2
20260905174641 71 23 1.7 1.7 0.00 0.00 0.00 67 1016.3
20260905174136 71 309 0.9 1.7 0.00 0.00 0.00 63 1016.2
20260905173632 72 310 0.9 1.7 0.00 0.00 0.00 63 1016.1
20260905173128 72 44 0.9 1.7 0.00 0.00 0.00 64 1015.8
20260905172626 71 208 2.6 4.3 0.00 0.00 0.00 68 1016.0
20260905172121 71 205 3.5 3.5 0.00 0.00 0.00 65 1016.0
20260905171618 72 238 0.9 4.3 0.00 0.00 0.00 65 1016.1
20260905171114 71 198 2.6 2.6 0.00 0.00 0.00 69 1016.2
20260905170610 70 78 1.7 2.6 0.00 0.00 0.00 70 1016.1
20260905170106 70 66 1.7 2.6 0.00 0.00 0.00 68 1016.0
20260905165605 71 282 0.9 3.5 0.00 0.00 0.00 68 1016.0
20260905165101 72 198 2.6 4.3 0.00 0.00 0.00 68 1016.0
20260905164556 70 159 1.7 1.7 0.00 0.00 0.00 70 1016.0
20260905164056 69 127 0.9 4.3 0.00 0.00 0.00 71 1016.1
20260905163552 69 196 3.5 3.5 0.00 0.00 0.00 70 1016.2
20260905163048 69 216 1.7 3.5 0.00 0.00 0.00 69 1016.2
20260905162544 69 24 2.6 2.6 0.00 0.00 0.00 71 1016.2
20260905162043 68 252 0.0 2.6 0.00 0.00 0.00 72 1016.4
20260905161543 69 198 2.6 4.3 0.00 0.00 0.00 70 1016.3
20260905161041 70 154 2.6 3.5 0.00 0.00 0.00 69 1016.2
20260905160539 69 76 0.9 3.5 0.00 0.00 0.00 69 1016.2
20260905160034 69 229 1.7 1.7 0.00 0.00 0.00 72 1016.4
20260905155534 69 303 1.7 2.6 0.00 0.00 0.00 71 1016.3
20260905155033 69 254 1.7 2.6 0.00 0.00 0.00 70 1016.3
20260905154528 69 196 2.6 7.8 0.00 0.00 0.00 73 1016.3
20260905154024 69 176 1.7 7.0 0.00 0.00 0.00 70 1016.5
20260905153520 69 200 1.7 3.5 0.00 0.00 0.00 72 1016.4
20260905153019 70 180 1.7 3.5 0.00 0.00 0.00 70 1016.3
20260905152519 69 242 1.7 5.2 0.00 0.00 0.00 70 1016.3
20260905152014 69 194 2.6 5.2 0.00 0.00 0.00 68 1016.2
20260905151510 69 304 1.7 2.6 0.00 0.00 0.00 70 1016.4
20260905151005 69 175 1.7 5.2 0.00 0.00 0.00 71 1016.3
20260905150500 68 209 2.6 4.3 0.00 0.00 0.00 71 1016.1
20260905145956 69 196 3.5 5.2 0.00 0.00 0.00 72 1016.2
20260905145451 69 184 3.5 4.3 0.00 0.00 0.00 72 1016.4
20260905144950 68 203 1.7 6.1 0.00 0.00 0.00 77 1016.4
20260905144446 67 192 1.7 10.4 0.00 0.00 0.00 76 1016.2
20260905143945 68 203 5.2 7.8 0.00 0.00 0.00 74 1016.3
20260905143443 68 184 3.5 7.8 0.00 0.00 0.00 76 1016.3
20260905142939 68 211 4.3 7.0 0.00 0.00 0.00 75 1016.4
20260905142437 67 187 1.7 7.8 0.00 0.00 0.00 75 1016.4
20260905141933 67 201 3.5 7.0 0.00 0.00 0.00 75 1016.3
20260905141428 67 159 1.7 5.2 0.00 0.00 0.00 77 1016.6
20260905140924 66 210 5.2 7.8 0.00 0.00 0.00 79 1016.5
20260905140419 67 200 4.3 5.2 0.00 0.00 0.00 75 1016.4
20260905135918 66 303 1.7 6.1 0.00 0.00 0.00 77 1016.5
20260905135414 66 159 2.6 4.3 0.00 0.00 0.00 78 1016.4
20260905134909 66 230 9.6 10.4 0.00 0.00 0.00 77 1016.5
20260905134408 66 328 1.7 4.3 0.00 0.00 0.00 78 1016.6
20260905133903 66 131 1.7 5.2 0.00 0.00 0.00 76 1016.6
20260905133358 65 323 0.0 7.0 0.00 0.00 0.00 77 1016.4
20260905132857 65 219 2.6 7.8 0.00 0.00 0.00 79 1016.4
20260905132353 65 239 3.5 7.0 0.00 0.00 0.00 79 1016.5
20260905131852 65 220 5.2 7.0 0.00 0.00 0.00 79 1016.3
20260905131348 65 281 0.9 5.2 0.00 0.00 0.00 80 1016.5
20260905130843 65 237 2.6 7.0 0.00 0.00 0.00 81 1016.4
20260905130341 64 269 0.0 9.6 0.00 0.00 0.00 80 1016.5
20260905125837 64 180 2.6 5.2 0.00 0.00 0.00 82 1016.6
20260905125332 63 309 2.6 2.6 0.00 0.00 0.00 84 1016.3
20260905124828 63 173 1.7 8.7 0.00 0.00 0.00 85 1016.3
20260905124325 62 197 2.6 6.1 0.00 0.00 0.00 85 1016.4
20260905123824 62 223 7.0 8.7 0.00 0.00 0.00 86 1016.3
20260905123321 62 156 1.7 3.5 0.00 0.00 0.00 87 1016.5
20260905122821 62 210 1.7 3.5 0.00 0.00 0.00 87 1016.3
20260905122320 62 230 2.6 3.5 0.00 0.00 0.00 87 1016.4
20260905121816 62 208 0.0 1.7 0.00 0.00 0.00 88 1016.2
20260905121312 61 107 0.9 1.7 0.00 0.00 0.00 89 1016.1
20260905120810 61 226 0.0 1.7 0.00 0.00 0.00 89 1016.1
20260905120305 60 169 0.9 1.7 0.00 0.00 0.00 91 1016.0
20260905115801 60 126 0.9 0.9 0.00 0.00 0.00 91 1016.3
20260905115300 60 66 0.0 0.9 0.00 0.00 0.00 92 1015.9
20260905114759 60 89 0.0 0.9 0.00 0.00 0.00 92 1016.2
20260905114259 59 353 1.7 1.7 0.00 0.00 0.00 91 1016.1
20260905113758 59 160 0.9 1.7 0.00 0.00 0.00 91 1016.0
20260905113254 59 123 0.9 1.7 0.00 0.00 0.00 92 1015.9
20260905112749 59 131 0.0 1.7 0.00 0.00 0.00 92 1015.8
20260905112249 59 135 0.0 1.7 0.00 0.00 0.00 92 1016.0
20260905111745 59 184 1.7 1.7 0.00 0.00 0.00 94 1015.8
20260905111239 58 168 0.0 2.6 0.00 0.00 0.00 96 1015.8
20260905110738 57 307 0.0 0.9 0.00 0.00 0.00 97 1015.6
20260905110232 56 38 0.0 1.7 0.00 0.00 0.00 96 1015.7
20260905105728 56 38 1.7 1.7 0.00 0.00 0.00 96 1015.7
20260905105227 57 23 1.7 2.6 0.00 0.00 0.00 96 1015.6
20260905104722 57 28 1.7 1.7 0.00 0.00 0.00 95 1015.5
20260905104218 57 38 1.7 2.6 0.00 0.00 0.00 95 1015.6
20260905103712 57 31 1.7 2.6 0.00 0.00 0.00 94 1015.6
20260905103208 57 113 0.0 1.7 0.00 0.00 0.00 94 1015.4
20260905102704 57 152 0.0 2.6 0.00 0.00 0.00 95 1015.7
20260905102201 57 137 0.0 1.7 0.00 0.00 0.00 96 1015.5
20260905101659 57 124 0.9 1.7 0.00 0.00 0.00 97 1015.5
20260905101158 57 129 0.0 1.7 0.00 0.00 0.00 97 1015.5
20260905100654 57 81 0.9 0.9 0.00 0.00 0.00 97 1015.6
20260905100149 57 89 0.0 0.9 0.00 0.00 0.00 97 1015.6
20260905095648 57 39 1.7 2.6 0.00 0.00 0.00 97 1015.6
20260905095143 57 52 1.7 1.7 0.00 0.00 0.00 97 1015.4
20260905094638 57 62 0.9 1.7 0.00 0.00 0.00 97 1015.8
20260905094137 57 41 1.7 1.7 0.00 0.00 0.00 97 1015.6
20260905093632 57 17 0.9 2.6 0.00 0.00 0.00 97 1015.5
20260905093129 57 24 0.9 1.7 0.00 0.00 0.00 97 1015.6
20260905092628 57 27 0.0 1.7 0.00 0.00 0.00 96 1015.3
20260905092124 57 23 1.7 2.6 0.00 0.00 0.00 97 1015.3
20260905091624 57 42 1.7 2.6 0.00 0.00 0.00 97 1015.4
20260905091123 57 37 1.7 1.7 0.00 0.00 0.00 97 1015.0
20260905090618 57 61 0.0 1.7 0.00 0.00 0.00 97 1015.2
20260905090114 57 42 1.7 1.7 0.00 0.00 0.00 97 1015.0
20260905085612 57 68 1.7 1.7 0.00 0.00 0.00 97 1015.2
20260905085108 57 35 0.0 0.9 0.00 0.00 0.00 97 1015.1
20260905084608 57 37 0.0 0.9 0.00 0.00 0.00 97 1015.2
20260905084103 56 67 0.0 0.0 0.00 0.00 0.00 96 1015.1
20260905083603 56 89 0.0 1.7 0.00 0.00 0.00 96 1015.0
20260905083100 57 87 0.9 1.7 0.00 0.00 0.00 96 1015.1
20260905082554 57 117 0.0 1.7 0.00 0.00 0.00 97 1015.2
20260905082051 57 37 0.0 0.9 0.00 0.00 0.00 96 1015.1
20260905081549 57 41 0.0 1.7 0.00 0.00 0.00 96 1015.1
20260905081045 57 24 0.9 1.7 0.00 0.00 0.00 96 1015.3
20260905080544 57 22 0.9 2.6 0.00 0.00 0.00 96 1015.2
20260905080040 58 39 0.0 1.7 0.00 0.00 0.00 96 1015.3
20260905075538 58 18 0.9 1.7 0.00 0.00 0.00 96 1015.1
20260905075039 58 30 1.7 1.7 0.00 0.00 0.00 96 1015.2
20260905074538 58 14 1.7 1.7 0.00 0.00 0.00 96 1015.4
20260905074034 58 28 1.7 2.6 0.00 0.00 0.00 96 1015.3
20260905073529 58 32 1.7 1.7 0.00 0.00 0.00 96 1015.5
20260905073025 58 33 1.7 1.7 0.00 0.00 0.00 96 1015.2
20260905072524 58 22 1.7 2.6 0.00 0.00 0.00 96 1015.4
20260905072020 58 44 1.7 1.7 0.00 0.00 0.00 96 1015.4
20260905071517 58 69 1.7 1.7 0.00 0.00 0.00 96 1015.5
20260905071016 58 74 1.7 1.7 0.00 0.00 0.00 96 1015.4
20260905070512 58 68 0.9 1.7 0.00 0.00 0.00 96 1015.6
20260905070008 58 57 0.9 1.7 0.00 0.00 0.00 95 1015.6
20260905065505 58 34 0.9 1.7 0.00 0.00 0.00 95 1015.6
20260905065001 58 5 0.9 1.7 0.00 0.00 0.00 95 1015.5
20260905064455 58 43 0.9 1.7 0.00 0.00 0.00 95 1015.6
20260905063950 58 37 0.0 1.7 0.00 0.00 0.00 95 1015.6
20260905063445 58 46 0.9 1.7 0.00 0.00 0.00 95 1015.7
20260905062941 58 57 1.7 1.7 0.00 0.00 0.00 95 1015.5
20260905062441 58 81 0.9 1.7 0.00 0.00 0.00 95 1015.6
20260905061936 58 36 1.7 1.7 0.00 0.00 0.00 94 1015.6
20260905061436 59 27 0.9 1.7 0.00 0.00 0.00 94 1015.7
20260905060936 59 28 1.7 1.7 0.00 0.00 0.00 94 1015.6
20260905060432 59 27 1.7 1.7 0.00 0.00 0.00 94 1015.8
20260905055931 59 32 0.9 1.7 0.00 0.00 0.00 94 1015.9
20260905055426 59 37 1.7 2.6 0.00 0.00 0.00 93 1015.7
20260905054925 59 26 1.7 1.7 0.00 0.00 0.00 93 1016.0
20260905054421 59 18 1.7 1.7 0.00 0.00 0.00 92 1015.9
20260905053921 60 14 1.7 1.7 0.00 0.00 0.00 91 1016.2
20260905053416 60 16 1.7 1.7 0.00 0.00 0.00 90 1016.0
20260905052911 61 9 0.9 1.7 0.00 0.00 0.00 89 1016.1
20260905052411 61 17 0.9 1.7 0.00 0.00 0.00 89 1016.0
20260905051910 60 55 0.0 0.9 0.00 0.00 0.00 90 1016.2
20260905051407 60 44 0.0 0.9 0.00 0.00 0.00 90 1016.0
20260905050904 60 15 1.7 1.7 0.00 0.00 0.00 91 1016.3
20260905050359 61 45 0.9 1.7 0.00 0.00 0.00 90 1016.1
20260905045854 60 77 0.9 1.7 0.00 0.00 0.00 92 1016.2
20260905045349 60 77 0.9 1.7 0.00 0.00 0.00 92 1016.2
20260905044845 60 80 0.0 0.9 0.00 0.00 0.00 92 1016.3
20260905044340 60 55 0.0 0.9 0.00 0.00 0.00 92 1016.2
20260905043838 60 115 0.9 0.9 0.00 0.00 0.00 91 1016.1
20260905043334 60 89 0.0 0.0 0.00 0.00 0.00 90 1016.3
20260905042829 61 76 0.0 0.9 0.00 0.00 0.00 90 1016.0
20260905042328 61 135 0.0 0.0 0.00 0.00 0.00 90 1016.2